Regional Weather Roundup
Issued by NWS Wakefield, VA

Home | Current Version | Previous Version | Text Only | Print | Product List | Glossary Off
Versions: 1 2 3 4 5 6 7 8 9 10 11 12 13 14 15 16 17 18 19 20 21 22 23 24 25 26 27

000
ASUS41 KAKQ 182210
RWRAKQ

REGIONAL WEATHER ROUNDUP
NATIONAL WEATHER SERVICE WAKEFIELD VA
600 PM EDT FRI APR 18 2014

Note: "fair" indicates few or no clouds below 12,000 feet with no
significant weather and/or obstructions to visibility. * = Denotes
station may not report precipitation (e.g., rain,snow,etc.),
thunder or fog.

VAZ042-051-052>054-056-182300-
NORTHERN VIRGINIA

CITY           SKY/WX    TMP DP  RH WIND       PRES   REMARKS
WASH NATIONAL  CLOUDY    56  34  43 CALM      30.33F
DULLES         PTSUNNY   54  32  43 SE6       30.30F
FORT BELVOIR   CLOUDY    54  34  47 S2        30.32F
QUANTICO       CLOUDY    53  36  52 S9        30.33F
FREDERICKSBRG* CLOUDY    54  36  50 SE7       30.31F
STAFFORD*      CLOUDY    53  37  56 SE7       30.35F
WARRENTON      CLOUDY    56  42  59 E7        30.29F
CULPEPER*      CLOUDY    59  34  38 E7        30.29F
MANASSAS*      PTSUNNY   54  36  50 SE8       30.31F
LEESBURG*      MOSUNNY   57  37  47 S3        30.30F
WINCHESTER     PTSUNNY   57  36  44 E5        30.26F
$$

VAZ048-049-060>072-079>083-182300-
CENTRAL AND SOUTH CENTRAL VIRGINIA...AND NORTH CENTRAL NORTH CAROLINA

CITY           SKY/WX    TMP DP  RH WIND       PRES   REMARKS
RICHMOND       CLOUDY    54  35  48 NE7       30.30F
CHESTERFIELD*  NOT AVBL
HANOVER        CLOUDY    54  34  46 NE5       30.32F
TAPPAHANNOCK*  CLOUDY    51  33  49 CALM      30.33F
CHARLOTTSVILLE CLOUDY    56  38  50 S6        30.27F
ORANGE*        CLOUDY    54  36  50 E5        30.29F
LOUISA*        CLOUDY    55  37  50 E5        30.27F
FARMVILLE*     CLOUDY    57  37  47 SE3       30.27F
SOUTH HILL*    CLOUDY    57  39  51 CALM      30.33F
ROANOKE RAPIDS CLOUDY    59  43  55 NE6       30.28S
RALEIGH        CLOUDY    60  41  49 NE7       30.27S
$$

VAZ088>098-182300-
SOUTHEAST VIRGINIA

CITY           SKY/WX    TMP DP  RH WIND       PRES   REMARKS
NORFOLK        CLOUDY    47  40  76 NE8       30.32F
VIRGINIA BEACH CLOUDY    47  40  76 NE12      30.31F
NORFOLK NAVAL  CLOUDY    48  41  76 E12       30.33F
WEST POINT*    CLOUDY    53  37  54 NE5       30.34F
NEWPORT NEWS   CLOUDY    51  41  68 E10       30.32F
LANGLEY AFB    CLOUDY    48  42  80 E8        30.33F
FORT EUSTIS    CLOUDY    49  41  73 E8        30.30F
WILLIAMSBURG*    N/A     54  43  66 NE3       30.32F
FRANKLIN*      CLOUDY    54  41  62 E6        30.31S
WAKEFIELD      CLOUDY    53  40  61 CALM      30.31F
$$

VAZ020-022-025-037-045-182300-
WESTERN AND SOUTHWEST VIRGINIA

CITY           SKY/WX    TMP DP  RH WIND       PRES   REMARKS
STAUNTON*      CLOUDY    56  35  44 S5        30.27F
HOT SPRINGS VA CLOUDY    50  36  57 S3        30.29F
LYNCHBURG      CLOUDY    59  39  47 SE5       30.29S
DANVILLE       CLOUDY    57  38  48 E6        30.28S
MARTINSVILLE   CLOUDY    54  42  63 CALM      30.30S
ROANOKE        CLOUDY    53  38  56 SE6       30.30R
BLACKSBURG     CLOUDY    55  41  58 SE5       30.29R
DUBLIN*        CLOUDY    55  37  52 E3        30.27S
MARION*        CLOUDY    56  33  42 SE6       30.28S
HILLSVILLE*    CLOUDY    54  34  47 NW3       30.29S
RICHLANDS*     CLOUDY    64  33  32 CALM      30.24S
WISE*          CLOUDY    61  34  36 NE3       30.25S
ABINGDON*      CLOUDY    61  33  34 CALM      30.24S
$$

MDZ021>025-VAZ099-100-182300-
SOUTHERN MARYLAND AND THE DELMARVA PENINSULA

CITY           SKY/WX    TMP DP  RH WIND       PRES   REMARKS
PATUXENT RIVER CLOUDY    50  35  56 CALM      30.33F
BAY BRIDGE APT CLOUDY    50  36  57 CALM      30.32F
LEONARDTOWN    CLOUDY    50  36  57 CALM      30.33F
DOVER          MOSUNNY   47  39  72 E8        30.31F
GEORGETOWN     PTSUNNY   49  37  63 E9        30.34F
EASTON         CLOUDY    54  41  62 NW7       30.36F
CAMBRIDGE      CLOUDY    52  37  58 NW6       30.31F
SALISBURY      CLOUDY    50  38  63 E9        30.33F
OCEAN CITY     CLOUDY    45  38  76 NE9       30.35F
WALLOPS ISLAND CLOUDY    47  41  80 E10       30.35S
ACCOMACK*      CLOUDY    45  37  76 E7        30.33F
$$

NCZ012>017-030>032-182300-
EASTERN NORTH CAROLINA

CITY           SKY/WX    TMP DP  RH WIND       PRES   REMARKS
ELIZABETH CITY MOSUNNY   50  41  71 NE14      30.30F
AHOSKIE*       CLOUDY    57  41  55 N8        30.28S
EDENTON*       MOSUNNY   54  44  69 E8        30.29S
CURRITUCK*     MOSUNNY   48  40  74 NE10      30.31F
KILL DEVIL HLS CLOUDY    48  44  85 N10G20    30.27F
MANTEO         CLOUDY    49  44  82 NE16      30.29F
CAPE HATTERAS  CLOUDY    51  47  86 NE13G25   30.26F
GOLDSBORO      CLOUDY    62  47  57 NE6       30.24S
WASHINGTON     PTSUNNY   60  49  65 E9        30.26F
GREENVILLE     CLOUDY    63  45  51 NE8       30.26S
NEW BERN       CLOUDY    61  47  59 NE10      30.25F
WILMINGTON     LGT RAIN  60  55  83 N9        30.21F
$$

VAZ048-182300-
ELSEWHERE

CITY           SKY/WX    TMP DP  RH WIND       PRES   REMARKS
HARRISBURG PA  CLOUDY    54  34  46 SE8       30.29F
BALTIMORE      CLOUDY    51  32  48 CALM      30.32F
ANNAPOLIS      CLOUDY    51  33  50 CALM      30.32F
ANDREWS AFB    PTSUNNY   51  34  52 E3        30.32F
WILMINGTON DE  MOSUNNY   52  32  46 S5        30.34F
PHILADELPHIA   PTSUNNY   55  30  38 CALM      30.34F
WILDWOOD NJ*   MOSUNNY   45  34  65 E7        30.37S
ATLANTIC CITY  MOSUNNY   44  35  70 E9        30.35F
HENDERSON NC   CLOUDY    56  37  49 NE5       30.28S
GREENSBORO     CLOUDY    56  37  49 E5        30.27R
ROCKY MOUNT    CLOUDY    61  43  51 N8        30.27S
FAYETTEVILLE   CLOUDY    63  44  50 E6        30.24R
CHARLOTTE      LGT RAIN  52  45  77 N6        30.27R
$$

VAZ100-182300-
MARINE

STATION/POSITION TIME  TEMP    WIND        PRES    WAVE   SWELL
                       AIR SEA DIR/SP/G            HT/PER HT/PER
                 (UTC) (F)     (DEG/KT/KT) (MB)    (FT/S) (FT/S)
44066 TX TWR #4  2200   41 44   50/ 10/ 12 1027.1F   8/11   8/11
CAPE MAY NJ      2200   44 52  120/  8/ 10 1027.9R
LEWES DE         2200   44 48  100/  7/ 10 1027.4F
15NM E FENWICK I 2200   43 45              1027.7F   6/10
OCEAN-CITY-INLET 2200   44 48   70/  8/ 12 1027.1F
WACHAPREAGUE VA  2200   45 54   70/ 10/ 12 1027.0F
THOMAS POINT MD  2200   49 53   CALM  /  1 1027.4F
GOOSES REEF MD   2200   48      30/  6/  8 1028.4F
COVE POINT MD    2200   48     280/  1/  2 1026.6F
SOLOMONS ISLAND  2200      52                N/A
BISHOPS HEAD MD  2200   49 55  300/  9/ 11 1026.6F
PINEY POINT MD   2200          140/  1/  2   N/A
POTOMAC MD       2100   48     280/  4/  6 1026.8F
CAMBRIDGE MD     2200   48 55  300/  8/ 13 1026.5F
LEWISETTA VA     2200   49 53  200/  3/  3 1027.0R
RAPPAHANNOCK LGT 2200           20/  5/  6 1027.5F
STINGRAY PT      2200   47      CALM  /  4 1027.0F
YORK RVR RNG VA  2200   47      80/  7/  9 1026.3F
YORKTOWN VA      2200   47 55  100/  7/  9 1026.8F
JAMESTOWN VA     2200   51     130/  6/  8   N/A
DOMINION TERM VA 2200   48      70/  8/ 11 1026.8S
KIPTOPEKE VA     2200      52   70/  8/ 10   N/A
CHES BAY BRIDGE  2200   45 52   50/ 12/ 15 1026.7R
CAPE HENRY VA    2200   44      40/ 11/ 12   N/A
CHESAPEAKE LGHT  2100   44      50/ 13/ 15 1027.9F
WILLOUBY STN VA  2200   46      80/ 11/ 13 1025.9S
S CRANEY ISL VA  2200           30/ 10/ 12 1026.9S
CAPE HENRY BUOY  2200      47                N/A     6/10   2/11
1ST LANDING BUOY 2200      46                N/A     6/10   5/10
64NM E OF VA BCH 2200   47 49  360/ 17/ 21 1025.5F   7/10   5/10
DUCK PIER NC     2200   46 52   20/ 17/ 20 1024.7F
44100 DUCK FRF   2200      47                N/A     7/ 9   3/11
44056 DUCK FRF   2200      49                N/A     6/ 9   2/11
OREGON INLET NC  2200   48 52  360/ 14/ 21 1025.1F
HATTERAS NC      2200   51 56   40/ 13/ 21 1024.6R
CAPE LOOKOUT NC  2100   56      30/ 24/ 27 1023.6F
FRYING PAN SHLS  2200   62 64   70/ 25/ 29 1020.6F   8/ 7   3/10
$$



USA.gov is the U.S. government's official web portal to all federal, state and local government web resources and services.